Torna al catalogo

COSMOS 1275 DEB

AttivoPO
NORAD 42155·DEBRIS·🇷🇺 Russia

Lanciato Jun 4, 1981 da Plesetsk Cosmodrome

Loading…

Prossimi Passaggi (prossime 24 ore)

TLE

In scadenzaSource: Space-Track

Epoca: Sep 7, 2026, 12:22 UTC

1 42155U 81053RT  26250.51581790  .00001444  00000-0  73996-3 0  9995
2 42155  82.9103 180.8339 0037912 245.5603 114.1618 14.14503184656326

Traccia COSMOS 1275 DEB in tempo reale con AllMySat

Download on the App Store